• In Hungary
  • List of Countries
  • For 7 days
  • Water Temperature
  • Satellite Maps
  • Weather Map
  • News
  • Weather Widgets
  • user-avatar
    Login

    Hourly Weather Stoughton

    Today, 23 January, Tuesday

    Time Temperature Precipitation Wind Pressure Humidity
    00:00 +3°C° 0.1 mm 2 mps 760 mmHg 98%
    01:00 +2°C° 0 mm 2 mps 759 mmHg 98%
    02:00 +3°C° 0 mm 2 mps 759 mmHg 98%
    03:00 +3°C° 0 mm 2 mps 758 mmHg 98%
    04:00 +3°C° 0 mm 2 mps 757 mmHg 98%
    05:00 +4°C° 0 mm 2 mps 756 mmHg 98%
    06:00 +4°C° 0 mm 3 mps 756 mmHg 98%
    07:00 +1°C° 0 mm 2 mps 755 mmHg 86%
    08:00 +3°C° 0.7 mm 2 mps 754 mmHg 89%
    09:00 +4°C° 0.7 mm 3 mps 753 mmHg 91%
    10:00 +6°C° 0.7 mm 4 mps 752 mmHg 94%
    11:00 +8°C° 2.6 mm 5 mps 750 mmHg 94%
    12:00 +10°C° 2.6 mm 6 mps 749 mmHg 93%
    13:00 +11°C° 2.6 mm 7 mps 748 mmHg 93%
    14:00 +11°C° 3.7 mm 7 mps 746 mmHg 93%
    15:00 +11°C° 3.7 mm 7 mps 745 mmHg 93%
    16:00 +11°C° 3.7 mm 6 mps 744 mmHg 93%
    17:00 +11°C° 0.1 mm 6 mps 744 mmHg 93%
    18:00 +10°C° 0.1 mm 6 mps 744 mmHg 92%
    19:00 +10°C° 0.1 mm 5 mps 744 mmHg 92%
    20:00 +8°C° 0 mm 5 mps 745 mmHg 88%
    21:00 +7°C° 0 mm 5 mps 745 mmHg 83%
    22:00 +5°C° 0 mm 6 mps 746 mmHg 79%
    23:00 +5°C° 0 mm 5 mps 746 mmHg 80%

    Tomorrow, 24 January, Wednesday

    Time Temperature Precipitation Wind Pressure Humidity
    00:00 +4°C° 0 mm 4 mps 746 mmHg 80%
    01:00 +3°C° 0 mm 4 mps 747 mmHg 81%
    02:00 +1°C° 0 mm 4 mps 747 mmHg 80%
    03:00 +1°C° 0 mm 4 mps 747 mmHg 80%
    04:00 +1°C° 0 mm 4 mps 747 mmHg 79%
    05:00 0°C° 0 mm 4 mps 748 mmHg 80%
    06:00 0°C° 0 mm 5 mps 748 mmHg 80%
    07:00 0°C° 0 mm 5 mps 749 mmHg 81%
    08:00 0°C° 0 mm 5 mps 749 mmHg 75%
    09:00 -1°C° 0 mm 6 mps 750 mmHg 69%
    10:00 -1°C° 0 mm 6 mps 751 mmHg 63%
    11:00 -1°C° 0 mm 6 mps 751 mmHg 61%
    12:00 -1°C° 0 mm 6 mps 751 mmHg 59%
    13:00 -1°C° 0 mm 6 mps 751 mmHg 57%
    14:00 -1°C° 0 mm 6 mps 751 mmHg 57%
    15:00 -2°C° 0 mm 6 mps 752 mmHg 57%
    16:00 -1°C° 0 mm 5 mps 752 mmHg 57%
    17:00 -2°C° 0 mm 5 mps 753 mmHg 59%
    18:00 -4°C° 0 mm 5 mps 754 mmHg 61%
    19:00 -5°C° 0 mm 5 mps 754 mmHg 63%
    20:00 -6°C° 0 mm 5 mps 755 mmHg 62%
    21:00 -6°C° 0 mm 5 mps 755 mmHg 62%
    22:00 -5°C° 0 mm 4 mps 756 mmHg 61%
    23:00 -7°C° 0 mm 4 mps 756 mmHg 60%

    Day after tomorrow, 25 January, Thursday

    Time Temperature Precipitation Wind Pressure Humidity
    00:00 -7°C° 0 mm 4 mps 756 mmHg 59%
    01:00 -7°C° 0 mm 4 mps 756 mmHg 58%
    02:00 -7°C° 0 mm 4 mps 756 mmHg 55%
    03:00 -8°C° 0 mm 5 mps 757 mmHg 53%
    04:00 -8°C° 0 mm 5 mps 757 mmHg 50%
    05:00 -8°C° 0 mm 5 mps 757 mmHg 48%
    06:00 -8°C° 0 mm 5 mps 758 mmHg 47%
    07:00 -8°C° 0 mm 5 mps 759 mmHg 45%
    08:00 -9°C° 0 mm 6 mps 759 mmHg 42%
    09:00 -8°C° 0 mm 6 mps 760 mmHg 39%
    10:00 -8°C° 0 mm 6 mps 760 mmHg 36%
    11:00 -6°C° 0 mm 6 mps 760 mmHg 34%
    12:00 -6°C° 0 mm 6 mps 760 mmHg 32%
    13:00 -6°C° 0 mm 7 mps 760 mmHg 30%
    14:00 -6°C° 0 mm 7 mps 761 mmHg 30%
    15:00 -7°C° 0 mm 7 mps 761 mmHg 30%
    16:00 -6°C° 0 mm 6 mps 762 mmHg 31%
    17:00 -8°C° 0 mm 6 mps 763 mmHg 32%
    18:00 -8°C° 0 mm 6 mps 764 mmHg 33%
    19:00 -9°C° 0 mm 6 mps 765 mmHg 34%
    20:00 -9°C° 0 mm 6 mps 765 mmHg 34%
    21:00 -9°C° 0 mm 6 mps 766 mmHg 34%
    22:00 -10°C° 0 mm 6 mps 766 mmHg 33%
    23:00 -10°C° 0 mm 6 mps 766 mmHg 34%

    26 January, Friday

    Time Temperature Precipitation Wind Pressure Humidity
    00:00 -10°C° 0 mm 6 mps 767 mmHg 35%
    01:00 -11°C° 0 mm 6 mps 767 mmHg 35%
    02:00 -11°C° 0 mm 5 mps 767 mmHg 36%
    03:00 -11°C° 0 mm 5 mps 768 mmHg 37%
    04:00 -11°C° 0 mm 5 mps 768 mmHg 38%
    05:00 -11°C° 0 mm 5 mps 768 mmHg 39%
    06:00 -11°C° 0 mm 5 mps 769 mmHg 40%
    07:00 -11°C° 0 mm 4 mps 769 mmHg 41%
    08:00 -10°C° 0 mm 5 mps 770 mmHg 37%
    09:00 -8°C° 0 mm 5 mps 770 mmHg 33%
    10:00 -7°C° 0 mm 5 mps 771 mmHg 29%
    11:00 -5°C° 0 mm 4 mps 770 mmHg 27%
    12:00 -4°C° 0 mm 4 mps 770 mmHg 25%
    13:00 -2°C° 0 mm 3 mps 770 mmHg 23%
    14:00 -1°C° 0 mm 2 mps 770 mmHg 25%
    15:00 -1°C° 0 mm 2 mps 770 mmHg 26%
    16:00 +1°C° 0 mm 1 mps 769 mmHg 27%
    17:00 0°C° 0 mm 1 mps 770 mmHg 29%
    18:00 -1°C° 0 mm 1 mps 770 mmHg 31%
    19:00 -2°C° 0 mm 1 mps 770 mmHg 34%
    20:00 -4°C° 0 mm 2 mps 770 mmHg 36%
    21:00 -4°C° 0 mm 2 mps 770 mmHg 38%
    22:00 -5°C° 0 mm 3 mps 770 mmHg 41%
    23:00 -5°C° 0 mm 3 mps 769 mmHg 48%

    27 January, Saturday

    Time Temperature Precipitation Wind Pressure Humidity
    00:00 -4°C° 0 mm 3 mps 769 mmHg 56%
    01:00 -4°C° 0 mm 3 mps 769 mmHg 64%
    02:00 -3°C° 0 mm 4 mps 768 mmHg 71%
    03:00 -3°C° 0 mm 4 mps 767 mmHg 79%
    04:00 -2°C° 0 mm 5 mps 767 mmHg 86%
    05:00 -1°C° 0 mm 5 mps 766 mmHg 87%
    06:00 -1°C° 0 mm 5 mps 766 mmHg 89%
    07:00 0°C° 0 mm 5 mps 765 mmHg 90%
    08:00 +1°C° 0 mm 6 mps 765 mmHg 81%
    09:00 +3°C° 0 mm 6 mps 764 mmHg 72%
    10:00 +4°C° 0 mm 7 mps 764 mmHg 64%
    11:00 +5°C° 0 mm 7 mps 763 mmHg 61%
    12:00 +5°C° 0 mm 7 mps 762 mmHg 59%
    13:00 +6°C° 0 mm 7 mps 762 mmHg 57%
    14:00 +5°C° 0 mm 6 mps 762 mmHg 61%
    15:00 +5°C° 0 mm 6 mps 762 mmHg 64%
    16:00 +5°C° 0 mm 5 mps 761 mmHg 68%
    17:00 +3°C° 0 mm 5 mps 762 mmHg 72%
    18:00 +4°C° 0 mm 4 mps 762 mmHg 77%
    19:00 +3°C° 0 mm 4 mps 763 mmHg 81%
    20:00 +3°C° 0.1 mm 4 mps 763 mmHg 84%
    21:00 +3°C° 0.1 mm 4 mps 762 mmHg 86%
    22:00 +3°C° 0.1 mm 4 mps 762 mmHg 89%
    23:00 +3°C° 0.2 mm 4 mps 762 mmHg 91%

    28 January, Sunday

    Time Temperature Precipitation Wind Pressure Humidity
    00:00 +3°C° 0.2 mm 3 mps 762 mmHg 93%
    01:00 +3°C° 0.2 mm 3 mps 761 mmHg 95%
    02:00 +3°C° 0.4 mm 3 mps 761 mmHg 95%
    03:00 +3°C° 0.4 mm 3 mps 761 mmHg 96%
    04:00 +3°C° 0.4 mm 3 mps 760 mmHg 97%
    05:00 +3°C° 0.3 mm 3 mps 760 mmHg 97%
    06:00 +3°C° 0.3 mm 3 mps 760 mmHg 97%
    07:00 +3°C° 0.3 mm 3 mps 760 mmHg 97%
    08:00 +4°C° 0.3 mm 3 mps 759 mmHg 97%
    09:00 +4°C° 0.3 mm 3 mps 759 mmHg 96%
    10:00 +5°C° 0.3 mm 3 mps 759 mmHg 96%
    11:00 +7°C° 0.3 mm 3 mps 757 mmHg 94%
    12:00 +7°C° 0.3 mm 4 mps 756 mmHg 93%
    13:00 +7°C° 0.3 mm 4 mps 755 mmHg 91%
    14:00 +7°C° 0.4 mm 4 mps 755 mmHg 92%
    15:00 +7°C° 0.4 mm 4 mps 754 mmHg 93%
    16:00 +7°C° 0.4 mm 4 mps 754 mmHg 94%
    17:00 +7°C° 0.2 mm 4 mps 753 mmHg 94%
    18:00 +6°C° 0.2 mm 4 mps 753 mmHg 94%
    19:00 +6°C° 0.2 mm 4 mps 753 mmHg 94%
    20:00 +7°C° 0 mm 3 mps 753 mmHg 94%
    21:00 +5°C° 0 mm 3 mps 753 mmHg 93%
    22:00 +5°C° 0 mm 3 mps 753 mmHg 93%
    23:00 +4°C° 0 mm 3 mps 753 mmHg 92%
    Show more